Starlink 3661

operational
NORAD ID: 52129 Int'l Des: 2022-029 Owner: SPXS Country: US Constellation: starlink
LEOCIRCULAR

关于 Starlink 3661

正在加载描述...

实时位置

正在加载3D地球...

即将过境

高度历史

Altitude vs Time

uPlot chart will show altitude changes over time

两行轨道根数

1 52129U 22029AT 26093.78380079 .00000825 00000-0 69959-4 0 9993
2 52129 53.2180 316.4674 0001251 93.7349 266.3787 15.08829249224729
Epoch: Apr 3, 2026 • Age: 24 hours

当前状态

高度 543.1 km
速度 7.60 km/s
星下点 42.13°N, 31.51°W
发射日期 Mar 19, 2022
运行时间 4 years
类型 internet

技术详情

分类 Payload
质量 297.00 kg
干质量 275.00 kg
总质量 297.00 kg
长度 0.20 m
直径 2.80 m
跨度 9.00 m
形状 Box + pan
制造商 SPXS
平台类型 Starlink
阶段状态 In Orbit
所有者/国家 SPXS/US

大型星座

Loading constellations...